Portada
METAR-TAF:

METAR-TAF

Aeroports :

Mecklenburg-Brunswick Regional Airport

South Hill, Virgínia, Estats Units d'Amèrica

latitud: 36-41-19N, longitud: 078-03-15W, altitud: 135 m

Observació

L'informe es va fer fa 29 minuts, a les 12:35 UTC
Vent 4 kt del Sud
Temperatura 22°C
Humitat 94%
Pressió 1018 hPa
Visibilitat: 16.1 km
Cel clar

METAR: KAVC 291235Z AUTO 18004KT 10SM CLR 22/21 A3007 RMK AO2 T02230212

Hora: 09:04 (13:04 UTC)


TAF: manca

Observacions i pronòstics meteorològics de més de 4000 aeroports (METAR i TAF).

Les estacions disponibles són els punts grocs i vermells al mapa.

Posi el ratolí al punt desitjat per veure el nom de l'estació.

Feu clic per veure les observacions i els pronòstics meteorològics.

Per canviar el mapa: feu clic els botons verds amb una creu de color negre per apropar; al botó verd amb un guió per allunyar la imatge; o en les fletxes verdes per a mapes adjacents.


METAR-TAF: